| time (UTC) | temp F | wind direction | speed knots | gust knots | rain 1hr in | rain 24hr in | rain mn in | humidity % | barometer mb |
| 20260906044346 | 72 | 266 | 0.9 | 0.9 | 0.00 | 0.00 | 0.00 | 97 | 1018.6 |
| 20260906043842 | 72 | 263 | 1.7 | 1.7 | 0.00 | 0.00 | 0.00 | 97 | 1018.5 |
| 20260906043338 | 72 | 246 | 0.9 | 1.7 | 0.00 | 0.00 | 0.00 | 97 | 1018.0 |
| 20260906042833 | 72 | 271 | 0.0 | 1.7 | 0.00 | 0.00 | 0.00 | 97 | 1018.0 |
| 20260906042331 | 72 | 229 | 0.0 | 0.9 | 0.00 | 0.00 | 0.00 | 97 | 1018.3 |
| 20260906041827 | 72 | 213 | 1.7 | 1.7 | 0.00 | 0.00 | 0.00 | 97 | 1018.3 |
| 20260906041322 | 72 | 223 | 0.9 | 1.7 | 0.00 | 0.00 | 0.00 | 97 | 1018.6 |
| 20260906040817 | 72 | 244 | 0.0 | 0.9 | 0.00 | 0.00 | 0.00 | 97 | 1018.7 |
| 20260906040312 | 72 | 166 | 0.0 | 0.9 | 0.00 | 0.00 | 0.00 | 97 | 1018.7 |
| 20260906035813 | 72 | 241 | 0.9 | 1.7 | 0.00 | 0.00 | 0.00 | 97 | 1019.1 |
| 20260906035308 | 72 | 247 | 0.9 | 1.7 | 0.00 | 0.00 | 0.00 | 97 | 1019.3 |
| 20260906034803 | 72 | 191 | 0.9 | 1.7 | 0.00 | 0.00 | 0.00 | 97 | 1019.2 |
| 20260906034258 | 72 | 198 | 0.0 | 0.9 | 0.00 | 0.00 | 0.00 | 97 | 1019.1 |
| 20260906033754 | 73 | 253 | 0.9 | 0.9 | 0.00 | 0.00 | 0.00 | 97 | 1019.2 |
| 20260906033253 | 72 | 157 | 0.0 | 0.0 | 0.00 | 0.00 | 0.00 | 97 | 1019.0 |
| 20260906032749 | 73 | 217 | 0.0 | 0.9 | 0.00 | 0.00 | 0.00 | 97 | 1018.8 |
| 20260906032250 | 73 | 210 | 0.0 | 0.9 | 0.00 | 0.00 | 0.00 | 97 | 1018.7 |
| 20260906031744 | 73 | 235 | 0.0 | 1.7 | 0.00 | 0.00 | 0.00 | 97 | 1018.8 |
| 20260906031241 | 73 | 214 | 1.7 | 1.7 | 0.00 | 0.00 | 0.00 | 97 | 1018.8 |
| 20260906030735 | 73 | 211 | 0.9 | 1.7 | 0.00 | 0.00 | 0.00 | 97 | 1018.8 |
| 20260906030230 | 73 | 242 | 0.0 | 0.0 | 0.00 | 0.00 | 0.00 | 97 | 1018.8 |
| 20260906025729 | 0 | 0.0 | 0.0 | 0.00 | 0.00 | 0.00 | 1018.7 | ||
| 20260906025229 | 0 | 0.0 | 0.0 | 0.00 | 0.00 | 0.00 | 1019.0 | ||
| 20260906024728 | 73 | 297 | 0.0 | 0.0 | 0.00 | 0.00 | 0.00 | 96 | 1018.5 |
| 20260906024227 | 73 | 297 | 0.0 | 0.0 | 0.00 | 0.00 | 0.00 | 96 | 1018.5 |
| 20260906023723 | 0 | 0.0 | 0.0 | 0.00 | 0.00 | 0.00 | 1018.6 | ||
| 20260906023218 | 0 | 0.0 | 0.0 | 0.00 | 0.00 | 0.00 | 1018.4 | ||
| 20260906022714 | 0 | 0.0 | 0.0 | 0.00 | 0.00 | 0.00 | 1018.3 | ||
| 20260906022209 | 0 | 0.0 | 0.0 | 0.00 | 0.00 | 0.00 | 1018.3 | ||
| 20260906021705 | 73 | 228 | 1.7 | 1.7 | 0.00 | 0.00 | 0.00 | 96 | 1018.0 |
| 20260906021203 | 73 | 228 | 1.7 | 1.7 | 0.00 | 0.00 | 0.00 | 96 | 1018.3 |
| 20260906020658 | 73 | 205 | 0.9 | 1.7 | 0.00 | 0.00 | 0.00 | 96 | 1017.8 |
| 20260906020153 | 74 | 220 | 0.9 | 0.9 | 0.00 | 0.00 | 0.00 | 96 | 1017.8 |
| 20260906015647 | 74 | 212 | 0.9 | 0.9 | 0.00 | 0.00 | 0.00 | 96 | 1017.8 |
| 20260906015146 | 74 | 205 | 0.0 | 0.0 | 0.00 | 0.00 | 0.00 | 95 | 1017.9 |
| 20260906014641 | 74 | 140 | 0.0 | 0.9 | 0.00 | 0.00 | 0.00 | 95 | 1017.7 |
| 20260906014137 | 74 | 246 | 0.9 | 1.7 | 0.00 | 0.00 | 0.00 | 95 | 1017.7 |
| 20260906013632 | 74 | 231 | 0.9 | 1.7 | 0.00 | 0.00 | 0.00 | 95 | 1017.7 |
| 20260906013127 | 74 | 142 | 0.0 | 0.9 | 0.00 | 0.00 | 0.00 | 95 | 1017.8 |
| 20260906012622 | 74 | 251 | 0.0 | 0.9 | 0.00 | 0.00 | 0.00 | 94 | 1017.6 |
| 20260906012117 | 74 | 193 | 0.0 | 1.7 | 0.00 | 0.00 | 0.00 | 94 | 1017.5 |
| 20260906011612 | 75 | 249 | 0.9 | 1.7 | 0.00 | 0.00 | 0.00 | 94 | 1017.5 |
| 20260906011107 | 75 | 254 | 0.9 | 1.7 | 0.00 | 0.00 | 0.00 | 93 | 1017.5 |
| 20260906010603 | 75 | 180 | 0.0 | 0.9 | 0.00 | 0.00 | 0.00 | 93 | 1017.8 |
| 20260906010059 | 75 | 200 | 0.9 | 1.7 | 0.00 | 0.00 | 0.00 | 93 | 1017.8 |
| 20260906005558 | 75 | 238 | 1.7 | 1.7 | 0.00 | 0.00 | 0.00 | 92 | 1017.7 |
| 20260906005056 | 76 | 174 | 0.0 | 0.0 | 0.00 | 0.00 | 0.00 | 92 | 1017.8 |
| 20260906004556 | 76 | 193 | 0.0 | 1.7 | 0.00 | 0.00 | 0.00 | 92 | 1018.0 |
| 20260906004051 | 76 | 245 | 1.7 | 1.7 | 0.00 | 0.00 | 0.00 | 91 | 1018.0 |
| 20260906003546 | 76 | 216 | 1.7 | 1.7 | 0.00 | 0.00 | 0.00 | 90 | 1018.0 |
| 20260906003042 | 76 | 238 | 1.7 | 1.7 | 0.00 | 0.00 | 0.00 | 90 | 1018.0 |
| 20260906002537 | 77 | 233 | 0.9 | 1.7 | 0.00 | 0.00 | 0.00 | 89 | 1017.7 |
| 20260906002032 | 77 | 227 | 0.9 | 1.7 | 0.00 | 0.00 | 0.00 | 89 | 1018.3 |
| 20260906001527 | 77 | 228 | 0.9 | 1.7 | 0.00 | 0.00 | 0.00 | 89 | 1018.0 |
| 20260906001021 | 78 | 254 | 0.9 | 1.7 | 0.00 | 0.00 | 0.00 | 88 | 1018.0 |
| 20260906000518 | 78 | 241 | 1.7 | 1.7 | 0.00 | 0.00 | 0.00 | 88 | 1018.1 |
| 20260906000018 | 78 | 208 | 1.7 | 1.7 | 0.00 | 0.00 | 0.00 | 87 | 1017.9 |
| 20260905235511 | 78 | 250 | 2.6 | 2.6 | 0.00 | 0.00 | 0.00 | 87 | 1018.0 |
| 20260905235007 | 79 | 242 | 0.9 | 1.7 | 0.00 | 0.00 | 0.00 | 87 | 1018.3 |
| 20260905234502 | 79 | 195 | 0.0 | 0.0 | 0.00 | 0.00 | 0.00 | 86 | 1017.8 |
| 20260905233956 | 80 | 258 | 0.9 | 1.7 | 0.00 | 0.00 | 0.00 | 86 | 1017.7 |
| 20260905233452 | 80 | 245 | 1.7 | 1.7 | 0.00 | 0.00 | 0.00 | 86 | 1017.8 |
| 20260905232950 | 80 | 233 | 1.7 | 1.7 | 0.00 | 0.00 | 0.00 | 85 | 1017.7 |
| 20260905232447 | 80 | 194 | 0.0 | 1.7 | 0.00 | 0.00 | 0.00 | 87 | 1017.8 |
| 20260905231943 | 80 | 252 | 0.9 | 1.7 | 0.00 | 0.00 | 0.00 | 85 | 1017.6 |
| 20260905231438 | 80 | 233 | 1.7 | 1.7 | 0.00 | 0.00 | 0.00 | 84 | 1017.5 |
| 20260905230934 | 81 | 233 | 1.7 | 1.7 | 0.00 | 0.00 | 0.00 | 83 | 1017.4 |
| 20260905230433 | 81 | 236 | 1.7 | 1.7 | 0.00 | 0.00 | 0.00 | 83 | 1017.5 |
| 20260905225931 | 81 | 249 | 1.7 | 1.7 | 0.00 | 0.00 | 0.00 | 83 | 1017.5 |
| 20260905225426 | 81 | 254 | 1.7 | 2.6 | 0.00 | 0.00 | 0.00 | 82 | 1017.7 |
| 20260905224921 | 81 | 232 | 1.7 | 1.7 | 0.00 | 0.00 | 0.00 | 82 | 1017.7 |
| 20260905224417 | 81 | 245 | 1.7 | 1.7 | 0.00 | 0.00 | 0.00 | 81 | 1017.5 |
| 20260905223917 | 82 | 251 | 1.7 | 1.7 | 0.00 | 0.00 | 0.00 | 82 | 1017.7 |
| 20260905223415 | 82 | 246 | 1.7 | 2.6 | 0.00 | 0.00 | 0.00 | 81 | 1017.5 |
| 20260905222915 | 82 | 245 | 1.7 | 1.7 | 0.00 | 0.00 | 0.00 | 81 | 1017.6 |
| 20260905222414 | 82 | 257 | 1.7 | 1.7 | 0.00 | 0.00 | 0.00 | 81 | 1017.5 |
| 20260905221910 | 82 | 238 | 2.6 | 2.6 | 0.00 | 0.00 | 0.00 | 80 | 1017.8 |
| 20260905221407 | 82 | 243 | 1.7 | 2.6 | 0.00 | 0.00 | 0.00 | 81 | 1017.7 |
| 20260905220902 | 82 | 239 | 1.7 | 2.6 | 0.00 | 0.00 | 0.00 | 81 | 1017.8 |
| 20260905220358 | 82 | 236 | 1.7 | 1.7 | 0.00 | 0.00 | 0.00 | 80 | 1018.0 |
| 20260905215857 | 82 | 247 | 1.7 | 2.6 | 0.00 | 0.00 | 0.00 | 79 | 1017.8 |
| 20260905215353 | 83 | 255 | 1.7 | 1.7 | 0.00 | 0.00 | 0.00 | 78 | 1017.9 |
| 20260905214849 | 83 | 253 | 0.9 | 2.6 | 0.00 | 0.00 | 0.00 | 76 | 1017.7 |
| 20260905214344 | 83 | 232 | 1.7 | 1.7 | 0.00 | 0.00 | 0.00 | 79 | 1017.7 |
| 20260905213839 | 83 | 229 | 1.7 | 1.7 | 0.00 | 0.00 | 0.00 | 78 | 1017.8 |
| 20260905213336 | 83 | 239 | 1.7 | 2.6 | 0.00 | 0.00 | 0.00 | 78 | 1017.9 |
| 20260905212835 | 83 | 233 | 1.7 | 2.6 | 0.00 | 0.00 | 0.00 | 79 | 1018.3 |
| 20260905212330 | 83 | 227 | 1.7 | 2.6 | 0.00 | 0.00 | 0.00 | 77 | 1018.3 |
| 20260905211824 | 84 | 238 | 1.7 | 2.6 | 0.00 | 0.00 | 0.00 | 76 | 1018.3 |
| 20260905211320 | 84 | 237 | 1.7 | 1.7 | 0.00 | 0.00 | 0.00 | 76 | 1018.0 |
| 20260905210817 | 84 | 236 | 1.7 | 2.6 | 0.00 | 0.00 | 0.00 | 74 | 1018.3 |
| 20260905210316 | 85 | 243 | 2.6 | 2.6 | 0.00 | 0.00 | 0.00 | 74 | 1018.3 |
| 20260905205815 | 86 | 235 | 1.7 | 2.6 | 0.00 | 0.00 | 0.00 | 71 | 1018.0 |
| 20260905205310 | 88 | 238 | 1.7 | 2.6 | 0.00 | 0.00 | 0.00 | 66 | 1018.4 |
| 20260905204809 | 89 | 240 | 2.6 | 3.5 | 0.00 | 0.00 | 0.00 | 64 | 1018.5 |
| 20260905204305 | 88 | 277 | 1.7 | 3.5 | 0.00 | 0.00 | 0.00 | 63 | 1018.4 |
| 20260905203804 | 87 | 259 | 1.7 | 1.7 | 0.00 | 0.00 | 0.00 | 66 | 1018.6 |
| 20260905203300 | 87 | 164 | 2.6 | 2.6 | 0.00 | 0.00 | 0.00 | 67 | 1018.9 |
| 20260905202755 | 87 | 283 | 1.7 | 2.6 | 0.00 | 0.00 | 0.00 | 67 | 1018.9 |
| 20260905202250 | 86 | 267 | 1.7 | 3.5 | 0.00 | 0.00 | 0.00 | 68 | 1018.7 |
| 20260905201745 | 85 | 284 | 0.0 | 3.5 | 0.00 | 0.00 | 0.00 | 72 | 1018.9 |
| 20260905201240 | 83 | 315 | 0.9 | 2.6 | 0.00 | 0.00 | 0.00 | 75 | 1019.1 |
| 20260905200736 | 81 | 214 | 0.0 | 1.7 | 0.00 | 0.00 | 0.00 | 76 | 1018.8 |
| 20260905200231 | 81 | 233 | 1.7 | 2.6 | 0.00 | 0.00 | 0.00 | 80 | 1018.8 |
| 20260905195729 | 81 | 245 | 1.7 | 1.7 | 0.00 | 0.00 | 0.00 | 81 | 1018.9 |
| 20260905195224 | 81 | 221 | 1.7 | 1.7 | 0.00 | 0.00 | 0.00 | 82 | 1018.9 |
| 20260905194720 | 81 | 235 | 1.7 | 2.6 | 0.00 | 0.00 | 0.00 | 81 | 1018.9 |
| 20260905194220 | 82 | 235 | 1.7 | 2.6 | 0.00 | 0.00 | 0.00 | 82 | 1018.8 |
| 20260905193719 | 82 | 233 | 1.7 | 1.7 | 0.00 | 0.00 | 0.00 | 81 | 1018.7 |
| 20260905193214 | 82 | 218 | 1.7 | 1.7 | 0.00 | 0.00 | 0.00 | 79 | 1018.6 |
| 20260905192709 | 83 | 240 | 0.9 | 1.7 | 0.00 | 0.00 | 0.00 | 76 | 1018.9 |
| 20260905192206 | 84 | 245 | 1.7 | 2.6 | 0.00 | 0.00 | 0.00 | 75 | 1019.0 |
| 20260905191705 | 84 | 253 | 1.7 | 1.7 | 0.00 | 0.00 | 0.00 | 73 | 1018.9 |
| 20260905191203 | 85 | 242 | 1.7 | 1.7 | 0.00 | 0.00 | 0.00 | 72 | 1018.9 |
| 20260905190702 | 85 | 249 | 1.7 | 1.7 | 0.00 | 0.00 | 0.00 | 71 | 1019.0 |
| 20260905190201 | 86 | 256 | 1.7 | 1.7 | 0.00 | 0.00 | 0.00 | 70 | 1019.2 |
| 20260905185700 | 87 | 358 | 0.0 | 2.6 | 0.00 | 0.00 | 0.00 | 65 | 1019.1 |
| 20260905185155 | 88 | 227 | 3.5 | 3.5 | 0.00 | 0.00 | 0.00 | 65 | 1019.2 |
| 20260905184654 | 88 | 231 | 0.0 | 3.5 | 0.00 | 0.00 | 0.00 | 65 | 1019.3 |
| 20260905184153 | 89 | 219 | 1.7 | 2.6 | 0.00 | 0.00 | 0.00 | 61 | 1019.1 |
| 20260905183648 | 90 | 220 | 1.7 | 3.5 | 0.00 | 0.00 | 0.00 | 59 | 1018.9 |
| 20260905183143 | 89 | 212 | 1.7 | 2.6 | 0.00 | 0.00 | 0.00 | 63 | 1018.7 |
| 20260905182642 | 89 | 183 | 0.0 | 1.7 | 0.00 | 0.00 | 0.00 | 60 | 1019.2 |
| 20260905182137 | 90 | 233 | 1.7 | 2.6 | 0.00 | 0.00 | 0.00 | 57 | 1019.1 |
| 20260905181632 | 92 | 218 | 1.7 | 2.6 | 0.00 | 0.00 | 0.00 | 54 | 1019.2 |
| 20260905181131 | 91 | 245 | 3.5 | 5.2 | 0.00 | 0.00 | 0.00 | 55 | 1019.2 |
| 20260905180626 | 90 | 238 | 3.5 | 4.3 | 0.00 | 0.00 | 0.00 | 61 | 1019.5 |
| 20260905180121 | 90 | 261 | 1.7 | 2.6 | 0.00 | 0.00 | 0.00 | 62 | 1019.2 |
| 20260905175620 | 90 | 262 | 3.5 | 3.5 | 0.00 | 0.00 | 0.00 | 64 | 1019.7 |
| 20260905175116 | 89 | 225 | 1.7 | 3.5 | 0.00 | 0.00 | 0.00 | 64 | 1019.5 |
| 20260905174612 | 89 | 243 | 2.6 | 2.6 | 0.00 | 0.00 | 0.00 | 60 | 1019.4 |
| 20260905174107 | 90 | 249 | 1.7 | 1.7 | 0.00 | 0.00 | 0.00 | 57 | 1019.5 |
| 20260905173603 | 90 | 250 | 1.7 | 1.7 | 0.00 | 0.00 | 0.00 | 54 | 1019.4 |
| 20260905173058 | 89 | 231 | 2.6 | 3.5 | 0.00 | 0.00 | 0.00 | 62 | 1019.5 |
| 20260905172557 | 88 | 231 | 2.6 | 3.5 | 0.00 | 0.00 | 0.00 | 65 | 1019.7 |
| 20260905172052 | 89 | 262 | 0.9 | 2.6 | 0.00 | 0.00 | 0.00 | 66 | 1019.5 |
| 20260905171549 | 89 | 251 | 1.7 | 2.6 | 0.00 | 0.00 | 0.00 | 62 | 1019.6 |
| 20260905171044 | 89 | 260 | 1.7 | 1.7 | 0.00 | 0.00 | 0.00 | 59 | 1019.7 |
| 20260905170541 | 90 | 199 | 2.6 | 4.3 | 0.00 | 0.00 | 0.00 | 58 | 1019.9 |
| 20260905170036 | 90 | 200 | 2.6 | 3.5 | 0.00 | 0.00 | 0.00 | 57 | 1019.9 |
| 20260905165530 | 89 | 235 | 0.0 | 2.6 | 0.00 | 0.00 | 0.00 | 57 | 1019.9 |
| 20260905165025 | 90 | 206 | 2.6 | 3.5 | 0.00 | 0.00 | 0.00 | 59 | 1020.0 |
| 20260905164520 | 89 | 185 | 1.7 | 3.5 | 0.00 | 0.00 | 0.00 | 59 | 1020.0 |
| 20260905164015 | 89 | 191 | 1.7 | 3.5 | 0.00 | 0.00 | 0.00 | 60 | 1020.3 |
| 20260905163511 | 88 | 213 | 2.6 | 4.3 | 0.00 | 0.00 | 0.00 | 60 | 1020.3 |
| 20260905163007 | 88 | 216 | 1.7 | 3.5 | 0.00 | 0.00 | 0.00 | 60 | 1020.5 |
| 20260905162503 | 89 | 251 | 2.6 | 3.5 | 0.00 | 0.00 | 0.00 | 61 | 1020.5 |
| 20260905161957 | 89 | 218 | 3.5 | 3.5 | 0.00 | 0.00 | 0.00 | 60 | 1020.3 |
| 20260905161456 | 88 | 244 | 3.5 | 3.5 | 0.00 | 0.00 | 0.00 | 64 | 1020.7 |
| 20260905160954 | 88 | 235 | 5.2 | 6.1 | 0.00 | 0.00 | 0.00 | 63 | 1020.3 |
| 20260905160453 | 88 | 246 | 2.6 | 2.6 | 0.00 | 0.00 | 0.00 | 68 | 1020.6 |
| 20260905155948 | 88 | 237 | 1.7 | 3.5 | 0.00 | 0.00 | 0.00 | 67 | 1020.4 |
| 20260905155443 | 88 | 248 | 2.6 | 3.5 | 0.00 | 0.00 | 0.00 | 66 | 1020.4 |
| 20260905154942 | 87 | 222 | 2.6 | 3.5 | 0.00 | 0.00 | 0.00 | 69 | 1020.5 |
| 20260905154437 | 87 | 236 | 2.6 | 3.5 | 0.00 | 0.00 | 0.00 | 69 | 1020.5 |
| 20260905153932 | 88 | 222 | 1.7 | 2.6 | 0.00 | 0.00 | 0.00 | 65 | 1020.4 |
| 20260905153429 | 87 | 237 | 1.7 | 2.6 | 0.00 | 0.00 | 0.00 | 62 | 1020.7 |
| 20260905152928 | 87 | 209 | 1.7 | 3.5 | 0.00 | 0.00 | 0.00 | 70 | 1020.7 |
| 20260905152428 | 88 | 180 | 0.0 | 1.7 | 0.00 | 0.00 | 0.00 | 64 | 1020.8 |
| 20260905151923 | 86 | 220 | 1.7 | 2.6 | 0.00 | 0.00 | 0.00 | 69 | 1020.5 |
| 20260905151419 | 84 | 235 | 1.7 | 2.6 | 0.00 | 0.00 | 0.00 | 75 | 1020.7 |
| 20260905150918 | 83 | 242 | 2.6 | 3.5 | 0.00 | 0.00 | 0.00 | 76 | 1020.7 |
| 20260905150413 | 83 | 234 | 1.7 | 2.6 | 0.00 | 0.00 | 0.00 | 75 | 1021.2 |
| 20260905145910 | 82 | 228 | 2.6 | 2.6 | 0.00 | 0.00 | 0.00 | 78 | 1020.7 |
| 20260905145410 | 81 | 231 | 1.7 | 2.6 | 0.00 | 0.00 | 0.00 | 79 | 1021.0 |
| 20260905144909 | 82 | 229 | 2.6 | 2.6 | 0.00 | 0.00 | 0.00 | 78 | 1020.7 |
| 20260905144405 | 82 | 219 | 2.6 | 3.5 | 0.00 | 0.00 | 0.00 | 75 | 1020.9 |
| 20260905143903 | 81 | 214 | 1.7 | 1.7 | 0.00 | 0.00 | 0.00 | 79 | 1020.6 |
| 20260905143357 | 80 | 221 | 2.6 | 2.6 | 0.00 | 0.00 | 0.00 | 85 | 1020.9 |
| 20260905142851 | 79 | 238 | 2.6 | 2.6 | 0.00 | 0.00 | 0.00 | 86 | 1020.8 |
| 20260905142344 | 78 | 237 | 2.6 | 2.6 | 0.00 | 0.00 | 0.00 | 87 | 1020.7 |
| 20260905141841 | 78 | 231 | 1.7 | 1.7 | 0.00 | 0.00 | 0.00 | 87 | 1020.7 |
| 20260905141336 | 77 | 231 | 1.7 | 2.6 | 0.00 | 0.00 | 0.00 | 89 | 1020.8 |
| 20260905140832 | 77 | 238 | 1.7 | 1.7 | 0.00 | 0.00 | 0.00 | 89 | 1020.7 |
| 20260905140332 | 77 | 231 | 1.7 | 1.7 | 0.00 | 0.00 | 0.00 | 90 | 1020.9 |
| 20260905135830 | 76 | 207 | 0.9 | 1.7 | 0.00 | 0.00 | 0.00 | 91 | 1020.8 |
| 20260905135326 | 75 | 230 | 0.0 | 0.9 | 0.00 | 0.00 | 0.00 | 92 | 1021.0 |
| 20260905134821 | 75 | 243 | 0.9 | 1.7 | 0.00 | 0.00 | 0.00 | 91 | 1021.2 |
| 20260905134315 | 74 | 261 | 0.0 | 1.7 | 0.00 | 0.00 | 0.00 | 92 | 1020.9 |
| 20260905133814 | 74 | 243 | 1.7 | 1.7 | 0.00 | 0.00 | 0.00 | 92 | 1021.0 |
| 20260905133310 | 74 | 240 | 0.9 | 1.7 | 0.00 | 0.00 | 0.00 | 92 | 1021.2 |
| 20260905132809 | 73 | 210 | 1.7 | 1.7 | 0.00 | 0.00 | 0.00 | 93 | 1021.1 |
| 20260905132306 | 73 | 238 | 0.9 | 1.7 | 0.00 | 0.00 | 0.00 | 94 | 1021.1 |
| 20260905131759 | 73 | 243 | 0.9 | 1.7 | 0.00 | 0.00 | 0.00 | 94 | 1021.1 |
| 20260905131254 | 72 | 250 | 0.0 | 1.7 | 0.00 | 0.00 | 0.00 | 95 | 1020.9 |
| 20260905130749 | 72 | 202 | 0.0 | 1.7 | 0.00 | 0.00 | 0.00 | 95 | 1021.0 |
| 20260905130248 | 71 | 238 | 0.0 | 1.7 | 0.00 | 0.00 | 0.00 | 95 | 1021.3 |
| 20260905125744 | 71 | 285 | 0.0 | 1.7 | 0.00 | 0.00 | 0.00 | 96 | 1021.2 |
| 20260905125238 | 71 | 218 | 0.9 | 0.9 | 0.00 | 0.00 | 0.00 | 96 | 1021.2 |
| 20260905124735 | 70 | 230 | 1.7 | 1.7 | 0.00 | 0.00 | 0.00 | 97 | 1021.3 |
| 20260905124231 | 70 | 228 | 0.0 | 1.7 | 0.00 | 0.00 | 0.00 | 97 | 1021.2 |
| 20260905123726 | 69 | 154 | 0.0 | 1.7 | 0.00 | 0.00 | 0.00 | 96 | 1021.2 |
| 20260905123223 | 69 | 164 | 0.9 | 1.7 | 0.00 | 0.00 | 0.00 | 97 | 1021.2 |
| 20260905122722 | 69 | 140 | 0.0 | 1.7 | 0.00 | 0.00 | 0.00 | 97 | 1021.2 |
| 20260905122217 | 69 | 142 | 0.0 | 1.7 | 0.00 | 0.00 | 0.00 | 97 | 1021.0 |
| 20260905121712 | 68 | 215 | 0.0 | 1.7 | 0.00 | 0.00 | 0.00 | 97 | 1020.8 |
| 20260905121209 | 68 | 336 | 0.9 | 1.7 | 0.00 | 0.00 | 0.00 | 98 | 1020.6 |
| 20260905120707 | 68 | 284 | 0.0 | 0.9 | 0.00 | 0.00 | 0.00 | 98 | 1020.8 |
| 20260905120202 | 68 | 225 | 0.0 | 1.7 | 0.00 | 0.00 | 0.00 | 98 | 1020.7 |
| 20260905115701 | 68 | 269 | 0.0 | 0.9 | 0.00 | 0.00 | 0.00 | 98 | 1020.8 |
| 20260905115156 | 67 | 212 | 0.0 | 1.7 | 0.00 | 0.00 | 0.00 | 98 | 1020.8 |
| 20260905114656 | 67 | 346 | 0.0 | 1.7 | 0.00 | 0.00 | 0.00 | 98 | 1020.8 |
| 20260905114154 | 67 | 135 | 0.0 | 1.7 | 0.00 | 0.00 | 0.00 | 98 | 1020.8 |
| 20260905113649 | 67 | 166 | 0.0 | 1.7 | 0.00 | 0.00 | 0.00 | 98 | 1020.5 |
| 20260905113145 | 67 | 163 | 0.0 | 1.7 | 0.00 | 0.00 | 0.00 | 98 | 1020.5 |
| 20260905112644 | 67 | 112 | 0.0 | 1.7 | 0.00 | 0.00 | 0.00 | 98 | 1020.5 |
| 20260905112141 | 67 | 141 | 0.0 | 1.7 | 0.00 | 0.00 | 0.00 | 98 | 1020.3 |
| 20260905111640 | 67 | 174 | 0.0 | 0.9 | 0.00 | 0.00 | 0.00 | 98 | 1020.3 |
| 20260905111140 | 67 | 224 | 0.0 | 1.7 | 0.00 | 0.00 | 0.00 | 98 | 1020.0 |
| 20260905110639 | 67 | 264 | 0.0 | 0.9 | 0.00 | 0.00 | 0.00 | 98 | 1019.9 |
| 20260905110134 | 67 | 147 | 0.0 | 0.9 | 0.00 | 0.00 | 0.00 | 98 | 1020.0 |
| 20260905105629 | 67 | 112 | 0.0 | 1.7 | 0.00 | 0.00 | 0.00 | 98 | 1020.3 |
| 20260905105128 | 67 | 156 | 0.9 | 1.7 | 0.00 | 0.00 | 0.00 | 98 | 1019.9 |
| 20260905104623 | 67 | 211 | 0.0 | 1.7 | 0.00 | 0.00 | 0.00 | 98 | 1020.0 |
| 20260905104119 | 67 | 157 | 0.9 | 1.7 | 0.00 | 0.00 | 0.00 | 98 | 1020.0 |
| 20260905103614 | 67 | 164 | 0.0 | 1.7 | 0.00 | 0.00 | 0.00 | 98 | 1019.7 |
| 20260905103110 | 67 | 156 | 0.9 | 1.7 | 0.00 | 0.00 | 0.00 | 98 | 1019.9 |
| 20260905102605 | 67 | 98 | 0.0 | 1.7 | 0.00 | 0.00 | 0.00 | 98 | 1019.7 |
| 20260905102102 | 67 | 156 | 0.9 | 1.7 | 0.00 | 0.00 | 0.00 | 98 | 1020.0 |
| 20260905101600 | 67 | 119 | 0.0 | 1.7 | 0.00 | 0.00 | 0.00 | 98 | 1019.9 |
| 20260905101058 | 67 | 240 | 0.0 | 1.7 | 0.00 | 0.00 | 0.00 | 98 | 1019.7 |
| 20260905100549 | 67 | 55 | 0.0 | 1.7 | 0.00 | 0.00 | 0.00 | 98 | 1019.9 |
| 20260905100049 | 67 | 200 | 0.9 | 1.7 | 0.00 | 0.00 | 0.00 | 98 | 1019.6 |
| 20260905095538 | 67 | 160 | 0.0 | 1.7 | 0.00 | 0.00 | 0.00 | 98 | 1019.8 |
| 20260905095033 | 67 | 182 | 0.0 | 1.7 | 0.00 | 0.00 | 0.00 | 98 | 1019.7 |
| 20260905094528 | 67 | 138 | 0.0 | 1.7 | 0.00 | 0.00 | 0.00 | 98 | 1019.8 |
| 20260905094027 | 67 | 89 | 0.0 | 1.7 | 0.00 | 0.00 | 0.00 | 98 | 1019.6 |
| 20260905093522 | 68 | 156 | 0.0 | 1.7 | 0.00 | 0.00 | 0.00 | 98 | 1019.4 |
| 20260905093018 | 68 | 106 | 0.0 | 1.7 | 0.00 | 0.00 | 0.00 | 98 | 1019.4 |
| 20260905092513 | 68 | 130 | 0.9 | 1.7 | 0.00 | 0.00 | 0.00 | 98 | 1019.4 |
| 20260905092009 | 68 | 245 | 0.9 | 1.7 | 0.00 | 0.00 | 0.00 | 98 | 1019.5 |
| 20260905091508 | 68 | 158 | 0.0 | 1.7 | 0.00 | 0.00 | 0.00 | 98 | 1019.3 |
| 20260905091003 | 68 | 246 | 0.0 | 1.7 | 0.00 | 0.00 | 0.00 | 98 | 1019.5 |
| 20260905090457 | 68 | 283 | 0.0 | 1.7 | 0.00 | 0.00 | 0.00 | 98 | 1019.6 |
| 20260905085956 | 68 | 221 | 0.0 | 0.9 | 0.00 | 0.00 | 0.00 | 98 | 1019.6 |
| 20260905085455 | 68 | 207 | 0.0 | 1.7 | 0.00 | 0.00 | 0.00 | 98 | 1019.6 |
| 20260905084952 | 68 | 112 | 0.9 | 1.7 | 0.00 | 0.00 | 0.00 | 98 | 1019.5 |
| 20260905084451 | 68 | 226 | 0.9 | 1.7 | 0.00 | 0.00 | 0.00 | 98 | 1019.7 |
| 20260905083945 | 68 | 122 | 0.0 | 1.7 | 0.00 | 0.00 | 0.00 | 98 | 1019.6 |
| 20260905083441 | 68 | 227 | 0.9 | 1.7 | 0.00 | 0.00 | 0.00 | 98 | 1019.7 |
| 20260905082937 | 68 | 186 | 0.0 | 1.7 | 0.00 | 0.00 | 0.00 | 98 | 1019.7 |
| 20260905082433 | 68 | 132 | 0.0 | 1.7 | 0.00 | 0.00 | 0.00 | 98 | 1019.5 |
| 20260905081928 | 68 | 52 | 0.0 | 1.7 | 0.00 | 0.00 | 0.00 | 98 | 1019.6 |
| 20260905081428 | 68 | 158 | 0.0 | 1.7 | 0.00 | 0.00 | 0.00 | 98 | 1019.7 |
| 20260905080927 | 68 | 190 | 0.9 | 1.7 | 0.00 | 0.00 | 0.00 | 98 | 1019.6 |
| 20260905080421 | 68 | 135 | 0.0 | 1.7 | 0.00 | 0.00 | 0.00 | 98 | 1019.9 |
| 20260905075920 | 68 | 198 | 0.9 | 1.7 | 0.00 | 0.00 | 0.00 | 98 | 1019.8 |
| 20260905075414 | 68 | 215 | 0.9 | 1.7 | 0.00 | 0.00 | 0.00 | 98 | 1019.8 |
| 20260905074914 | 69 | 150 | 0.0 | 1.7 | 0.00 | 0.00 | 0.00 | 98 | 1020.3 |
| 20260905074409 | 69 | 256 | 0.0 | 1.7 | 0.00 | 0.00 | 0.00 | 98 | 1019.7 |
| 20260905073905 | 69 | 215 | 0.9 | 1.7 | 0.00 | 0.00 | 0.00 | 98 | 1019.8 |
| 20260905073400 | 69 | 144 | 0.9 | 1.7 | 0.00 | 0.00 | 0.00 | 98 | 1020.2 |
| 20260905072855 | 69 | 150 | 0.0 | 1.7 | 0.00 | 0.00 | 0.00 | 98 | 1020.2 |
| 20260905072350 | 69 | 217 | 0.0 | 1.7 | 0.00 | 0.00 | 0.00 | 98 | 1020.0 |
| 20260905071846 | 69 | 220 | 0.0 | 1.7 | 0.00 | 0.00 | 0.00 | 98 | 1020.3 |
| 20260905071337 | 69 | 192 | 0.0 | 1.7 | 0.00 | 0.00 | 0.00 | 98 | 1020.2 |
| 20260905070831 | 69 | 195 | 0.0 | 1.7 | 0.00 | 0.00 | 0.00 | 98 | 1019.8 |
| 20260905070328 | 69 | 192 | 0.9 | 1.7 | 0.00 | 0.00 | 0.00 | 98 | 1019.9 |
| 20260905065826 | 69 | 137 | 0.0 | 1.7 | 0.00 | 0.00 | 0.00 | 98 | 1020.0 |
| 20260905065325 | 69 | 187 | 0.0 | 0.9 | 0.00 | 0.00 | 0.00 | 98 | 1020.0 |
| 20260905064821 | 69 | 131 | 0.0 | 1.7 | 0.00 | 0.00 | 0.00 | 98 | 1020.2 |
| 20260905064316 | 70 | 146 | 0.0 | 0.9 | 0.00 | 0.00 | 0.00 | 98 | 1020.4 |
| 20260905063814 | 70 | 230 | 0.0 | 1.7 | 0.00 | 0.00 | 0.00 | 98 | 1020.0 |
| 20260905063311 | 70 | 16 | 0.0 | 0.9 | 0.00 | 0.00 | 0.00 | 98 | 1019.9 |
| 20260905062807 | 70 | 175 | 0.0 | 0.9 | 0.00 | 0.00 | 0.00 | 98 | 1020.0 |
| 20260905062301 | 70 | 313 | 0.0 | 1.7 | 0.00 | 0.00 | 0.00 | 98 | 1020.3 |
| 20260905061755 | 70 | 235 | 0.0 | 0.9 | 0.00 | 0.00 | 0.00 | 98 | 1020.4 |
| 20260905061249 | 70 | 237 | 0.0 | 0.9 | 0.00 | 0.00 | 0.00 | 98 | 1020.3 |
| 20260905060744 | 70 | 222 | 0.9 | 1.7 | 0.00 | 0.00 | 0.00 | 98 | 1020.6 |
| 20260905060242 | 70 | 156 | 0.9 | 1.7 | 0.00 | 0.00 | 0.00 | 98 | 1020.6 |
| 20260905055740 | 70 | 172 | 0.0 | 1.7 | 0.00 | 0.00 | 0.00 | 98 | 1020.5 |
| 20260905055235 | 70 | 96 | 0.0 | 1.7 | 0.00 | 0.00 | 0.00 | 98 | 1020.3 |
| 20260905054730 | 71 | 235 | 0.0 | 1.7 | 0.00 | 0.00 | 0.00 | 98 | 1020.6 |
| 20260905054227 | 71 | 151 | 0.0 | 1.7 | 0.00 | 0.00 | 0.00 | 98 | 1020.5 |
| 20260905053725 | 71 | 309 | 0.0 | 0.9 | 0.00 | 0.00 | 0.00 | 98 | 1020.4 |
| 20260905053221 | 71 | 200 | 1.7 | 1.7 | 0.00 | 0.00 | 0.00 | 97 | 1020.5 |
| 20260905052715 | 71 | 194 | 0.0 | 1.7 | 0.00 | 0.00 | 0.00 | 97 | 1020.6 |
| 20260905052210 | 71 | 216 | 0.0 | 1.7 | 0.00 | 0.00 | 0.00 | 97 | 1020.6 |
| 20260905051709 | 71 | 147 | 0.9 | 1.7 | 0.00 | 0.00 | 0.00 | 98 | 1020.6 |
| 20260905051206 | 71 | 129 | 0.0 | 0.9 | 0.00 | 0.00 | 0.00 | 98 | 1020.3 |
| 20260905050702 | 71 | 291 | 0.0 | 0.9 | 0.00 | 0.00 | 0.00 | 98 | 1020.5 |
| 20260905050159 | 71 | 117 | 0.0 | 0.9 | 0.00 | 0.00 | 0.00 | 97 | 1020.4 |
| 20260905045658 | 71 | 156 | 0.9 | 1.7 | 0.00 | 0.00 | 0.00 | 97 | 1020.5 |
| 20260905045154 | 72 | 167 | 0.0 | 1.7 | 0.00 | 0.00 | 0.00 | 97 | 1020.5 |
| 20260905044649 | 72 | 101 | 0.0 | 1.7 | 0.00 | 0.00 | 0.00 | 97 | 1020.7 |